Location: Alessandria
(44.9000°N, 8.6170°E)
Time: 16:59:13
(UTC+02:00)

ISS - Pass Details

Date: 17 May 2021
Orbit: 417 x 422 km, 51.6° (Epoch: 18 June)

Event Time Altitude Azimuth Distance (km) Brightness Sun altitude
Rises 00:26:31 0° 283° (WNW) 2,366 0.4 -24.5°
Reaches altitude 10° 00:28:51 10° 296° (WNW) 1,504 -0.5 -24.6°
Maximum altitude 00:31:44 25° 355° (N) 882 -1.5 -24.8°
Drops below altitude 10° 00:34:37 10° 54° (NE) 1,508 -0.7 -24.9°
Sets 00:36:58 0° 68° (ENE) 2,374 0.2 -25.0°
